This demonstration page uses our WeatherBlox Daily Observations layout. Learn more.

Left ArrowRight Arrow

Hourly Observations for September 16, 2017

Temp ( °F °C ) Dew Point ( °F °C ) Humidity (%) Winds ( mph kmh ) Pressure ( in mb ) Visibility ( mi km ) Precip ( " mm )
12:51 am 00:51 Clear 74 23.3 47 8.3 38 38 WNW 6 9 29.75 1008 10 16.0934 0 0
1:51 am 01:51 Clear 72 22.2 47 8.3 41 41 NNW 6 9 29.76 1008 10 16.0934 0 0
2:51 am 02:51 Clear 71 21.7 48 8.9 44 44 SSW 6 9 29.77 1008 10 16.0934 0 0
3:51 am 03:51 Clear 66 18.9 45 7.2 47 47 NE 3 6 29.79 1009 10 16.0934 0 0
4:51 am 04:51 Clear 64 17.8 46 7.8 52 52 ENE 5 7 29.81 1010 10 16.0934 0 0
5:51 am 05:51 Clear 63 17.2 47 8.3 56 56 SSE 3 6 29.83 1010 10 16.0934 0 0
6:51 am 06:51 Sunny 66 18.9 47 8.3 50 50 Calm 29.85 1011 10 16.0934 0 0
7:51 am 07:51 Sunny 76 24.4 52 11.1 43 43 E 8 13 29.85 1011 10 16.0934 0 0
8:51 am 08:51 Sunny 79 26.1 53 11.7 41 41 ESE 10 17 29.86 1011 10 16.0934 0 0
9:51 am 09:51 Sunny 82 27.8 57 13.9 42 42 ESE 8 13 29.85 1011 10 16.0934 0 0
10:51 am 10:51 Mostly Sunny 86 30 55 12.8 35 35 ENE 7 11 29.84 1011 10 16.0934 0 0
11:51 am 11:51 Partly Cloudy 85 29.4 54 12.2 35 35 SE 8 13 29.81 1010 10 16.0934 0 0
12:51 pm 12:51 Partly Cloudy 90 32.2 46 7.8 22 22 S 10 17 29.78 1009 10 16.0934 0 0
1:51 pm 13:51 Mostly Sunny 90 32.2 47 8.3 23 23 S 12 19 29.76 1008 10 16.0934 0 0
2:51 pm 14:51 Mostly Sunny 93 33.9 47 8.3 21 21 W 10 17 29.73 1007 10 16.0934 0 0
3:51 pm 15:51 Sunny 91 32.8 45 7.2 20 20 Calm 29.73 1007 10 16.0934 0 0
4:51 pm 16:51 Mostly Sunny 92 33.3 44 6.7 19 19 VRB 5 7 29.72 1007 10 16.0934 0 0
5:51 pm 17:51 Sunny 88 31.1 44 6.7 22 22 Calm 29.73 1007 10 16.0934 0 0
6:51 pm 18:51 Mostly Clear 85 29.4 46 7.8 26 26 NW 7 11 29.74 1007 10 16.0934 0 0
7:51 pm 19:51 Mostly Clear 85 29.4 45 7.2 25 25 NW 12 19 29.74 1007 10 16.0934 0 0
8:51 pm 20:51 Clear 80 26.7 45 7.2 29 29 NW 7 11 29.77 1008 10 16.0934 0 0
9:51 pm 21:51 Mostly Cloudy 81 27.2 45 7.2 28 28 NW 8 13 29.77 1008 10 16.0934 0 0
10:51 pm 22:51 Mostly Clear 77 25 45 7.2 32 32 NW 8 13 29.78 1009 10 16.0934 0 0
11:51 pm 23:51 Clear 77 25 45 7.2 32 32 NNW 7 11 29.78 1009 10 16.0934 0 0

Powered by AerisWeather